weather.gov     
National Weather Service

Regional Weather Roundup
NWS Homepage
This page is being discontinued on March 12, 2014.
The same data is available at this site. Please update your bookmarks.
Thank you, and we apologize for the inconvenience.
Please send an email to SR-SRH.Webmaster@noaa.gov with any concerns.


Current Version
Previous Version:    01  02  03  04  05  06  07  08  09  10  11  12  13  14  15  16  17  18  19  20  21  22  23  24  25  26  27  28  29  30  
   31  32  33  34  35  36  37  38  39  40  41  42  43  44  45  46  47  48  49  50  51  52  53  54  55  56  57  58  59  60  
[Printable]
567
ASUS43 KEAX 020711
RWREAX

WEATHER ROUNDUP FOR EASTERN KANSAS AND NORTHWEST MISSOURI
NATIONAL WEATHER SERVICE KANSAS CITY/PLEASANT HILL MO
200 AM CDT TUE SEP 02 2014

KSZ040-057-103>105-MOZ028-029-037-043-020800-
...KANSAS CITY METROPOLITAN AREA...

CITY           SKY/WX    TMP DP  RH WIND       PRES   REMARKS
K.C. INTL      CLOUDY    68  67  96 NW6       29.93R FOG
K.C. DOWNTOWN  CLOUDY    72  69  90 CALM      29.90S
LEES SUMMIT    CLOUDY    70  69  97 SW3       29.90F FOG
OLATHE - IXD   CLOUDY    69  68  96 CALM      29.92S
OLATHE - OJC   CLOUDY    69  69 100 CALM      29.91S
LAWRENCE       CLOUDY   N/A N/A N/A NW6       29.92R

$$

MOZ001>008-011>017-020>025-030>033-038>040-044>046-053-054-020800-
...NORTHERN AND CENTRAL MISSOURI...

CITY           SKY/WX    TMP DP  RH WIND       PRES   REMARKS
ST. JOSEPH     MOCLDY    63  62  97 NW5       29.93S
MOSBY          CLOUDY    68  68 100 N5        29.91R FOG
WHITEMAN AFB   CLOUDY    69  68  97 SE3       29.89F
CLINTON        CLOUDY    72  72 100 CALM      29.91R
SEDALIA        CLOUDY    72  70  93 E6        29.91F FOG
WARSAW         NOT AVBL
MARSHALL       CLOUDY    73  73 100 SE6       29.90F
CHILLICOTHE      N/A     69  66  90 CALM      29.92S
KIRKSVILLE     CLOUDY    68  66  93 W5        29.92S

$$

MOZ041-047>049-056>058-063>065-088>090-097-020800-
...EASTERN AND SOUTHERN MISSOURI...

CITY           SKY/WX    TMP DP  RH WIND       PRES   REMARKS
ST. LOUIS INTL LGT RAIN  72  68  88 W3        29.97R
SPIRIT OF STL  LGT RAIN  69  68  96 CALM      29.96R
COLUMBIA       CLOUDY    69  69 100 CALM      29.92R
JEFFERSON CITY CLOUDY    71  69  93 SE5       29.90F
MEXICO         CLOUDY   N/A N/A N/A SE5       29.91F
HANNIBAL       CLOUDY    70  68  94 S8        29.89F
ROLLA          TSTM      68  67  96 N10G26    29.94R VSB 1
LEBANON        LGT RAIN  73  70  88 SW3       29.92F
OSAGE BEACH    CLOUDY    72  66  83 SE6       29.91F
SPRINGFIELD    TSTM      71  67  87 SW13      29.96F
BRANSON        LGT RAIN  73  72  94 CALM      29.95F
NEVADA         CLOUDY    70  70 100 E3        29.89F
JOPLIN         TSTM      66  65  96 W8        29.96R FOG
WEST PLAINS    LGT RAIN  77  71  82 S8        29.97F

$$

IAZ060-094-KSZ022-034>040-054-083-096-NEZ052-066-093-020800-
...KANSAS...SOUTHEAST NEBRASKA AND IOWA...

CITY           SKY/WX    TMP DP  RH WIND       PRES   REMARKS
TOPEKA         MOCLDY    70  70 100 NW3       29.94R FOG
MANHATTAN      PTCLDY    66  65  96 N3        29.96R
EMPORIA        CLOUDY    69  69 100 N3        29.92R FOG
CHANUTE        TSTM      71  69  93 S8        29.87F FOG
WICHITA        MOCLDY    73  68  84 E8        29.88F THUNDER
OMAHA          MOCLDY    63  58  83 N3        29.95F
LINCOLN        PTCLDY    61  56  83 SE5       29.96F
FALLS CITY     CLEAR     63  62  97 NW6       29.96R
LAMONI         MOCLDY    64  63  96 W6        29.95R
DES MOINES     PTCLDY    66  62  87 NW3       29.91R

$$





U.S. Dept. of Commerce
NOAA National Weather Service
1325 East West Highway
Silver Spring, MD 20910
E-mail: w-nws.webmaster@noaa.gov
Page last modified: May 16, 2007
NATIONAL WEATHER SERVICE: for Safety, for Work, for Fun - FOR LIFE